| time (UTC) | temp C | wind direction | speed KPH | gust KPH | rain 1hr cm | rain 24hr cm | rain mn cm | humidity % | barometer mb |
| 20260507162008 | 17 | 161 | 4.8 | 8.0 | 0.00 | 0.00 | 0.33 | 49 | 1012.0 |
| 20260507160827 | 17 | 216 | 4.8 | 8.0 | 0.00 | 0.00 | 0.33 | 48 | 1011.9 |
| 20260507155701 | 17 | 258 | 4.8 | 9.7 | 0.00 | 0.00 | 0.33 | 48 | 1011.9 |
| 20260507154534 | 18 | 258 | 0.0 | 4.8 | 0.00 | 0.00 | 0.33 | 47 | 1012.2 |
| 20260507153406 | 17 | 185 | 3.2 | 9.7 | 0.00 | 0.00 | 0.33 | 50 | 1012.0 |
| 20260507152238 | 18 | 180 | 3.2 | 8.0 | 0.00 | 0.00 | 0.33 | 46 | 1012.0 |
| 20260507151112 | 18 | 180 | 4.8 | 8.0 | 0.00 | 0.00 | 0.33 | 47 | 1012.0 |
| 20260507145956 | 17 | 212 | 3.2 | 8.0 | 0.00 | 0.00 | 0.33 | 48 | 1012.2 |
| 20260507144816 | 17 | 198 | 3.2 | 6.4 | 0.00 | 0.00 | 0.33 | 54 | 1012.6 |
| 20260507143649 | 16 | 222 | 3.2 | 6.4 | 0.00 | 0.00 | 0.33 | 53 | 1012.6 |
| 20260507142523 | 17 | 198 | 3.2 | 6.4 | 0.00 | 0.00 | 0.33 | 52 | 1011.9 |
| 20260507141354 | 18 | 210 | 6.4 | 8.0 | 0.00 | 0.00 | 0.33 | 50 | 1012.4 |
| 20260507140227 | 17 | 186 | 0.0 | 11.3 | 0.00 | 0.00 | 0.33 | 57 | 1012.4 |
| 20260507135059 | 17 | 194 | 4.8 | 8.0 | 0.00 | 0.00 | 0.33 | 55 | 1012.1 |
| 20260507133944 | 17 | 160 | 4.8 | 9.7 | 0.00 | 0.00 | 0.33 | 54 | 1012.7 |
| 20260507132802 | 16 | 196 | 4.8 | 4.8 | 0.00 | 0.00 | 0.33 | 51 | 1012.9 |
| 20260507131633 | 17 | 174 | 3.2 | 8.0 | 0.00 | 0.00 | 0.33 | 53 | 1013.5 |
| 20260507130506 | 17 | 192 | 8.0 | 9.7 | 0.00 | 0.00 | 0.33 | 59 | 1012.8 |
| 20260507125339 | 17 | 192 | 6.4 | 9.7 | 0.00 | 0.00 | 0.33 | 54 | 1013.0 |
| 20260507124123 | 16 | 252 | 3.2 | 8.0 | 0.00 | 0.00 | 0.33 | 56 | 1013.0 |
| 20260507122941 | 16 | 278 | 3.2 | 8.0 | 0.00 | 0.00 | 0.33 | 59 | 1013.1 |
| 20260507121815 | 16 | 69 | 1.6 | 8.0 | 0.00 | 0.00 | 0.33 | 64 | 1013.7 |
| 20260507120647 | 15 | 300 | 0.0 | 11.3 | 0.00 | 0.00 | 0.33 | 63 | 1012.8 |
| 20260507115518 | 15 | 228 | 8.0 | 9.7 | 0.00 | 0.00 | 0.33 | 61 | 1013.1 |
| 20260507114351 | 17 | 171 | 8.0 | 8.0 | 0.00 | 0.00 | 0.33 | 62 | 1013.5 |
| 20260507113222 | 16 | 234 | 6.4 | 8.0 | 0.00 | 0.00 | 0.33 | 63 | 1013.4 |
| 20260507112107 | 15 | 87 | 6.4 | 8.0 | 0.00 | 0.00 | 0.33 | 64 | 1013.1 |
| 20260507110925 | 15 | 194 | 6.4 | 8.0 | 0.00 | 0.00 | 0.33 | 72 | 1013.8 |
| 20260507105758 | 14 | 192 | 4.8 | 6.4 | 0.00 | 0.00 | 0.33 | 68 | 1013.8 |
| 20260507104630 | 13 | 204 | 4.8 | 4.8 | 0.00 | 0.00 | 0.33 | 66 | 1013.4 |
| 20260507103502 | 13 | 330 | 0.0 | 3.2 | 0.00 | 0.00 | 0.33 | 68 | 1013.7 |
| 20260507102246 | 13 | 246 | 4.8 | 6.4 | 0.00 | 0.00 | 0.33 | 69 | 1013.4 |
| 20260507101106 | 13 | 240 | 0.0 | 8.0 | 0.00 | 0.00 | 0.33 | 73 | 1013.3 |
| 20260507095938 | 13 | 224 | 4.8 | 8.0 | 0.00 | 0.00 | 0.33 | 73 | 1013.5 |
| 20260507094812 | 13 | 264 | 3.2 | 4.8 | 0.00 | 0.00 | 0.33 | 73 | 1014.0 |
| 20260507093644 | 12 | 0 | 0.0 | 4.8 | 0.00 | 0.00 | 0.33 | 80 | 1013.8 |
| 20260507092517 | 12 | 282 | 0.0 | 4.8 | 0.00 | 0.00 | 0.33 | 78 | 1013.8 |
| 20260507091351 | 12 | 204 | 3.2 | 4.8 | 0.00 | 0.00 | 0.33 | 78 | 1013.7 |
| 20260507090236 | 12 | 240 | 0.0 | 4.8 | 0.00 | 0.00 | 0.33 | 81 | 1013.5 |
| 20260507085056 | 12 | 192 | 1.6 | 3.2 | 0.00 | 0.00 | 0.33 | 83 | 1013.4 |
| 20260507083929 | 12 | 234 | 3.2 | 8.0 | 0.00 | 0.00 | 0.33 | 82 | 1013.4 |
| 20260507082802 | 11 | 186 | 3.2 | 4.8 | 0.00 | 0.00 | 0.33 | 85 | 1013.6 |
| 20260507081635 | 11 | 198 | 4.8 | 4.8 | 0.03 | 0.00 | 0.33 | 88 | 1013.5 |
| 20260507080508 | 11 | 240 | 1.6 | 4.8 | 0.03 | 0.00 | 0.33 | 87 | 1013.5 |
| 20260507075340 | 10 | 222 | 3.2 | 8.0 | 0.03 | 0.00 | 0.33 | 87 | 1013.4 |
| 20260507074224 | 11 | 270 | 1.6 | 3.2 | 0.03 | 0.00 | 0.33 | 89 | 1013.4 |
| 20260507073051 | 10 | 198 | 1.6 | 3.2 | 0.03 | 0.00 | 0.33 | 93 | 1013.3 |
| 20260507071915 | 10 | 216 | 3.2 | 3.2 | 0.00 | 0.00 | 0.30 | 92 | 1013.3 |
| 20260507070749 | 10 | 240 | 3.2 | 3.2 | 0.03 | 0.00 | 0.30 | 92 | 1013.2 |
| 20260507065621 | 10 | 198 | 0.0 | 3.2 | 0.05 | 0.00 | 0.30 | 94 | 1013.1 |
| 20260507064405 | 10 | 240 | 0.0 | 3.2 | 0.05 | 0.00 | 0.30 | 95 | 1013.1 |
| 20260507063226 | 10 | 246 | 0.0 | 3.2 | 0.08 | 0.00 | 0.30 | 96 | 1013.0 |
| 20260507062059 | 10 | 264 | 0.0 | 1.6 | 0.10 | 0.00 | 0.30 | 96 | 1013.0 |
| 20260507060931 | 10 | 252 | 3.2 | 3.2 | 0.08 | 0.00 | 0.28 | 96 | 1013.0 |
| 20260507055803 | 10 | 174 | 1.6 | 3.2 | 0.05 | 0.00 | 0.25 | 97 | 1012.9 |
| 20260507054547 | 9 | 276 | 3.2 | 3.2 | 0.08 | 0.00 | 0.25 | 97 | 1012.8 |
| 20260507053406 | 9 | 222 | 0.0 | 3.2 | 0.08 | 0.00 | 0.25 | 97 | 1012.7 |
| 20260507052239 | 9 | 186 | 3.2 | 3.2 | 0.03 | 0.00 | 0.20 | 96 | 1012.5 |
| 20260507051110 | 9 | 186 | 3.2 | 3.2 | 0.03 | 0.00 | 0.20 | 97 | 1012.4 |
| 20260507045943 | 9 | 173 | 3.2 | 3.2 | 0.03 | 0.00 | 0.20 | 97 | 1012.2 |
| 20260507044728 | 9 | 192 | 0.0 | 1.6 | 0.00 | 0.00 | 0.18 | 97 | 1012.0 |
| 20260507043546 | 8 | 198 | 0.0 | 1.6 | 0.00 | 0.00 | 0.18 | 97 | 1011.9 |
| 20260507042418 | 8 | 222 | 1.6 | 4.8 | 0.05 | 0.00 | 0.18 | 98 | 1011.8 |
| 20260507041252 | 8 | 198 | 1.6 | 3.2 | 0.08 | 0.00 | 0.18 | 98 | 1011.8 |
| 20260507040125 | 8 | 222 | 1.6 | 3.2 | 0.13 | 0.00 | 0.18 | 98 | 1011.8 |
| 20260507034909 | 8 | 180 | 1.6 | 4.8 | 0.15 | 0.00 | 0.18 | 98 | 1011.6 |
| 20260507033728 | 8 | 228 | 1.6 | 3.2 | 0.15 | 0.00 | 0.18 | 98 | 1011.6 |
| 20260507032600 | 8 | 234 | 0.0 | 3.2 | 0.13 | 0.00 | 0.15 | 98 | 1011.6 |
| 20260507031434 | 8 | 186 | 0.0 | 3.2 | 0.13 | 0.00 | 0.15 | 98 | 1011.5 |
| 20260507030307 | 8 | 192 | 0.0 | 1.6 | 0.10 | 0.00 | 0.10 | 98 | 1011.5 |
| 20260507025050 | 8 | 192 | 1.6 | 3.2 | 0.10 | 0.00 | 0.10 | 97 | 1011.5 |
| 20260507023909 | 8 | 174 | 3.2 | 3.2 | 0.08 | 0.00 | 0.08 | 97 | 1011.4 |
| 20260507022742 | 8 | 210 | 3.2 | 3.2 | 0.08 | 0.00 | 0.08 | 96 | 1011.3 |
| 20260507021613 | 8 | 186 | 4.8 | 4.8 | 0.05 | 0.00 | 0.05 | 95 | 1011.2 |
| 20260507020446 | 8 | 162 | 3.2 | 4.8 | 0.03 | 0.00 | 0.03 | 95 | 1011.2 |
| 20260507015231 | 9 | 222 | 3.2 | 4.8 | 0.00 | 0.00 | 0.00 | 92 | 1011.2 |
| 20260507014050 | 9 | 174 | 3.2 | 4.8 | 0.00 | 0.00 | 0.00 | 92 | 1011.0 |
| 20260507012924 | 9 | 228 | 0.0 | 1.6 | 0.00 | 0.00 | 0.00 | 91 | 1010.9 |
| 20260507011756 | 9 | 222 | 1.6 | 1.6 | 0.00 | 0.00 | 0.00 | 91 | 1010.9 |
| 20260507010630 | 9 | 186 | 0.0 | 3.2 | 0.00 | 0.00 | 0.00 | 90 | 1010.8 |
| 20260507005502 | 9 | 210 | 1.6 | 3.2 | 0.00 | 0.00 | 0.00 | 89 | 1010.8 |
| 20260507004337 | 9 | 186 | 0.0 | 4.8 | 0.00 | 0.00 | 0.00 | 88 | 1010.7 |
| 20260507003222 | 9 | 168 | 0.0 | 4.8 | 0.00 | 0.00 | 0.00 | 89 | 1010.6 |
| 20260507002042 | 9 | 162 | 3.2 | 3.2 | 0.00 | 0.00 | 0.00 | 90 | 1010.5 |
| 20260507000913 | 9 | 198 | 0.0 | 1.6 | 0.00 | 0.00 | 0.00 | 91 | 1010.5 |
| 20260506235747 | 9 | 204 | 3.2 | 3.2 | 0.00 | 0.00 | 0.00 | 91 | 1010.4 |
| 20260506234619 | 9 | 186 | 0.0 | 1.6 | 0.00 | 0.00 | 0.00 | 92 | 1010.5 |
| 20260506233452 | 9 | 204 | 0.0 | 1.6 | 0.00 | 0.00 | 0.00 | 92 | 1010.5 |
| 20260506232325 | 9 | 192 | 3.2 | 4.8 | 0.00 | 0.00 | 0.00 | 93 | 1010.5 |
| 20260506223414 | 8 | 204 | 3.2 | 3.2 | 0.00 | 0.00 | 0.51 | 95 | 1010.4 |
| 20260506222245 | 8 | 192 | 0.0 | 1.6 | 0.00 | 0.00 | 0.51 | 96 | 1010.4 |
| 20260506221118 | 8 | 198 | 1.6 | 1.6 | 0.00 | 0.00 | 0.51 | 95 | 1010.4 |
| 20260506215950 | 8 | 192 | 0.0 | 0.0 | 0.00 | 0.00 | 0.51 | 97 | 1010.5 |
| 20260506214821 | 8 | 198 | 0.0 | 1.6 | 0.00 | 0.00 | 0.51 | 95 | 1010.4 |
| 20260506213653 | 9 | 180 | 0.0 | 0.0 | 0.00 | 0.00 | 0.51 | 93 | 1010.4 |
| 20260506212538 | 10 | 198 | 0.0 | 1.6 | 0.00 | 0.00 | 0.51 | 93 | 1010.4 |
| 20260506211358 | 10 | 228 | 0.0 | 1.6 | 0.00 | 0.00 | 0.51 | 94 | 1010.4 |
| 20260506210230 | 10 | 240 | 0.0 | 0.0 | 0.00 | 0.00 | 0.51 | 93 | 1010.5 |
| 20260506205105 | 10 | 192 | 0.0 | 0.0 | 0.00 | 0.00 | 0.51 | 93 | 1010.3 |
| 20260506203935 | 9 | 204 | 0.0 | 0.0 | 0.00 | 0.00 | 0.51 | 93 | 1010.2 |
| 20260506202719 | 8 | 258 | 1.6 | 3.2 | 0.00 | 0.00 | 0.51 | 94 | 1010.0 |
| 20260506201538 | 8 | 246 | 0.0 | 0.0 | 0.00 | 0.00 | 0.51 | 97 | 1009.8 |
| 20260506200411 | 8 | 228 | 0.0 | 1.6 | 0.00 | 0.00 | 0.51 | 95 | 1009.6 |
| 20260506195244 | 9 | 198 | 0.0 | 3.2 | 0.00 | 0.00 | 0.51 | 93 | 1009.6 |
| 20260506194118 | 9 | 192 | 3.2 | 3.2 | 0.00 | 0.00 | 0.51 | 92 | 1009.5 |
| 20260506192902 | 10 | 174 | 1.6 | 3.2 | 0.00 | 0.00 | 0.51 | 92 | 1009.3 |
| 20260506191721 | 10 | 216 | 1.6 | 3.2 | 0.00 | 0.00 | 0.51 | 91 | 1009.3 |
| 20260506190554 | 10 | 198 | 3.2 | 4.8 | 0.00 | 0.00 | 0.51 | 91 | 1009.2 |
| 20260506185427 | 10 | 168 | 3.2 | 4.8 | 0.00 | 0.00 | 0.51 | 91 | 1009.1 |
| 20260506184300 | 10 | 204 | 3.2 | 3.2 | 0.00 | 0.00 | 0.51 | 91 | 1009.0 |
| 20260506183043 | 10 | 192 | 0.0 | 4.8 | 0.00 | 0.00 | 0.51 | 91 | 1008.8 |
| 20260506181902 | 11 | 210 | 3.2 | 3.2 | 0.00 | 0.00 | 0.51 | 90 | 1008.6 |
| 20260506180735 | 11 | 162 | 3.2 | 3.2 | 0.00 | 0.00 | 0.51 | 91 | 1008.6 |
| 20260506175608 | 11 | 168 | 3.2 | 3.2 | 0.00 | 0.00 | 0.51 | 92 | 1008.6 |
| 20260506174442 | 11 | 240 | 0.0 | 3.2 | 0.00 | 0.00 | 0.51 | 92 | 1008.4 |
| 20260506173313 | 11 | 161 | 3.2 | 3.2 | 0.00 | 0.00 | 0.51 | 87 | 1008.3 |
| 20260506172146 | 11 | 210 | 1.6 | 1.6 | 0.00 | 0.00 | 0.51 | 88 | 1008.0 |
| 20260506171031 | 11 | 270 | 0.0 | 1.6 | 0.00 | 0.00 | 0.51 | 89 | 1008.0 |
| 20260506165850 | 11 | 120 | 0.0 | 3.2 | 0.00 | 0.00 | 0.51 | 88 | 1007.9 |
| 20260506164723 | 11 | 192 | 0.0 | 3.2 | 0.00 | 0.00 | 0.51 | 86 | 1007.8 |
| 20260506163554 | 11 | 216 | 1.6 | 4.8 | 0.00 | 0.00 | 0.51 | 86 | 1007.8 |
| 20260506162426 | 11 | 240 | 3.2 | 3.2 | 0.00 | 0.00 | 0.51 | 85 | 1007.7 |